Year,Month,Day,Hour,Minute,Value (Times are PST for temperature in C)
2021,03,09,00,00,7.10
2021,03,09,00,01,7.10
2021,03,09,00,02,7.10
2021,03,09,00,03,7.10
2021,03,09,00,04,7.00
2021,03,09,00,05,7.00
2021,03,09,00,06,7.00
2021,03,09,00,07,6.90
2021,03,09,00,08,6.90
2021,03,09,00,09,6.90
2021,03,09,00,10,6.90
2021,03,09,00,11,6.90
2021,03,09,00,12,6.90
2021,03,09,00,13,6.80
2021,03,09,00,14,6.80
2021,03,09,00,15,6.80
2021,03,09,00,16,6.80
2021,03,09,00,17,6.80
2021,03,09,00,18,6.80
2021,03,09,00,19,6.80
2021,03,09,00,20,6.80
2021,03,09,00,21,6.80
2021,03,09,00,22,6.80
2021,03,09,00,23,6.80
2021,03,09,00,24,6.80
2021,03,09,00,25,6.90
2021,03,09,00,26,6.90
2021,03,09,00,27,6.90
2021,03,09,00,28,6.90
2021,03,09,00,29,6.90
2021,03,09,00,30,6.90
2021,03,09,00,31,6.90
2021,03,09,00,32,6.90
2021,03,09,00,33,6.90
2021,03,09,00,34,6.90
2021,03,09,00,35,6.80
2021,03,09,00,36,6.80
2021,03,09,00,37,6.80
2021,03,09,00,38,6.80
2021,03,09,00,39,6.80
2021,03,09,00,40,6.80
2021,03,09,00,41,6.80
2021,03,09,00,42,6.80
2021,03,09,00,43,6.80
2021,03,09,00,44,6.80
2021,03,09,00,45,6.80
2021,03,09,00,46,6.80
2021,03,09,00,47,6.80
2021,03,09,00,48,6.80
2021,03,09,00,49,6.80
2021,03,09,00,50,6.80
2021,03,09,00,51,6.80
2021,03,09,00,52,6.80
2021,03,09,00,53,6.80
2021,03,09,00,54,6.80
2021,03,09,00,55,6.80
2021,03,09,00,56,6.80
2021,03,09,00,57,6.80
2021,03,09,00,58,6.80
2021,03,09,00,59,6.80
2021,03,09,01,00,6.80
2021,03,09,01,01,6.80
2021,03,09,01,02,6.90
2021,03,09,01,03,6.90
2021,03,09,01,04,6.90
2021,03,09,01,05,6.90
2021,03,09,01,06,6.90
2021,03,09,01,07,6.90
2021,03,09,01,08,6.90
2021,03,09,01,09,6.90
2021,03,09,01,10,6.90
2021,03,09,01,11,6.90
2021,03,09,01,12,6.80
2021,03,09,01,13,6.80
2021,03,09,01,14,6.80
2021,03,09,01,15,6.80
2021,03,09,01,16,6.80
2021,03,09,01,17,6.80
2021,03,09,01,18,6.80
2021,03,09,01,19,6.80
2021,03,09,01,20,6.80
2021,03,09,01,21,6.80
2021,03,09,01,22,6.80
2021,03,09,01,23,6.80
2021,03,09,01,24,6.80
2021,03,09,01,25,6.80
2021,03,09,01,26,6.80
2021,03,09,01,27,6.80
2021,03,09,01,28,6.80
2021,03,09,01,29,6.80
2021,03,09,01,30,6.80
2021,03,09,01,31,6.80
2021,03,09,01,32,6.80
2021,03,09,01,33,6.80
2021,03,09,01,34,6.80
2021,03,09,01,35,6.80
2021,03,09,01,36,6.80
2021,03,09,01,37,6.80
2021,03,09,01,38,6.80
2021,03,09,01,39,6.80
2021,03,09,01,40,6.80
2021,03,09,01,41,6.80
2021,03,09,01,42,6.80
2021,03,09,01,43,6.80
2021,03,09,01,44,6.80
2021,03,09,01,45,6.80
2021,03,09,01,46,6.80
2021,03,09,01,47,6.80
2021,03,09,01,48,6.80
2021,03,09,01,49,6.70
2021,03,09,01,50,6.70
2021,03,09,01,51,6.70
2021,03,09,01,52,6.70
2021,03,09,01,53,6.60
2021,03,09,01,54,6.60
2021,03,09,01,55,6.60
2021,03,09,01,56,6.60
2021,03,09,01,57,6.60
2021,03,09,01,58,6.60
2021,03,09,01,59,6.60
2021,03,09,02,00,6.60
2021,03,09,02,01,6.60
2021,03,09,02,02,6.60
2021,03,09,02,03,6.60
2021,03,09,02,04,6.60
2021,03,09,02,05,6.50
2021,03,09,02,06,6.40
2021,03,09,02,07,6.30
2021,03,09,02,08,6.20
2021,03,09,02,09,6.20
2021,03,09,02,10,6.10
2021,03,09,02,11,6.00
2021,03,09,02,12,6.00
2021,03,09,02,13,5.90
2021,03,09,02,14,5.80
2021,03,09,02,15,5.70
2021,03,09,02,16,5.70
2021,03,09,02,17,5.60
2021,03,09,02,18,5.60
2021,03,09,02,19,5.50
2021,03,09,02,20,5.50
2021,03,09,02,21,5.50
2021,03,09,02,22,5.40
2021,03,09,02,23,5.40
2021,03,09,02,24,5.40
2021,03,09,02,25,5.30
2021,03,09,02,26,5.30
2021,03,09,02,27,5.30
2021,03,09,02,28,5.30
2021,03,09,02,29,5.20
2021,03,09,02,30,5.20
2021,03,09,02,31,5.10
2021,03,09,02,32,5.10
2021,03,09,02,33,5.10
2021,03,09,02,34,5.10
2021,03,09,02,35,5.00
2021,03,09,02,36,4.90
2021,03,09,02,37,4.90
2021,03,09,02,38,4.90
2021,03,09,02,39,4.90
2021,03,09,02,40,4.90
2021,03,09,02,41,4.80
2021,03,09,02,42,4.80
2021,03,09,02,43,4.70
2021,03,09,02,44,4.70
2021,03,09,02,45,4.60
2021,03,09,02,46,4.60
2021,03,09,02,47,4.60
2021,03,09,02,48,4.60
2021,03,09,02,49,4.60
2021,03,09,02,50,4.60
2021,03,09,02,51,4.60
2021,03,09,02,52,4.60
2021,03,09,02,53,4.60
2021,03,09,02,54,4.60
2021,03,09,02,55,4.60
2021,03,09,02,56,4.60
2021,03,09,02,57,4.60
2021,03,09,02,58,4.60
2021,03,09,02,59,4.60
2021,03,09,03,00,4.60
2021,03,09,03,01,4.60
2021,03,09,03,02,4.60
2021,03,09,03,03,4.60
2021,03,09,03,04,4.60
2021,03,09,03,05,4.60
2021,03,09,03,06,4.50
2021,03,09,03,07,4.50
2021,03,09,03,08,4.50
2021,03,09,03,09,4.50
2021,03,09,03,10,4.50
2021,03,09,03,11,4.60
2021,03,09,03,12,4.60
2021,03,09,03,13,4.70
2021,03,09,03,14,4.80
2021,03,09,03,15,4.80
2021,03,09,03,16,4.90
2021,03,09,03,17,4.90
2021,03,09,03,18,4.90
2021,03,09,03,19,4.90
2021,03,09,03,20,4.90
2021,03,09,03,21,4.90
2021,03,09,03,22,4.90
2021,03,09,03,23,4.90
2021,03,09,03,24,4.90
2021,03,09,03,25,4.90
2021,03,09,03,26,4.90
2021,03,09,03,27,4.90
2021,03,09,03,28,4.90
2021,03,09,03,29,4.90
2021,03,09,03,30,4.90
2021,03,09,03,31,4.80
2021,03,09,03,32,4.80
2021,03,09,03,33,4.70
2021,03,09,03,34,4.70
2021,03,09,03,35,4.70
2021,03,09,03,36,4.70
2021,03,09,03,37,4.70
2021,03,09,03,38,4.70
2021,03,09,03,39,4.70
2021,03,09,03,40,4.70
2021,03,09,03,41,4.70
2021,03,09,03,42,4.70
2021,03,09,03,43,4.70
2021,03,09,03,44,4.70
2021,03,09,03,45,4.70
2021,03,09,03,46,4.70
2021,03,09,03,47,4.60
2021,03,09,03,48,4.60
2021,03,09,03,49,4.60
2021,03,09,03,50,4.50
2021,03,09,03,51,4.50
2021,03,09,03,52,4.40
2021,03,09,03,53,4.40
2021,03,09,03,54,4.30
2021,03,09,03,55,4.30
2021,03,09,03,56,4.30
2021,03,09,03,57,4.30
2021,03,09,03,58,4.20
2021,03,09,03,59,4.20
2021,03,09,04,00,4.20
2021,03,09,04,01,4.30
2021,03,09,04,02,4.30
2021,03,09,04,03,4.30
2021,03,09,04,04,4.30
2021,03,09,04,05,4.30
2021,03,09,04,06,4.30
2021,03,09,04,07,4.30
2021,03,09,04,08,4.40
2021,03,09,04,09,4.40
2021,03,09,04,10,4.40
2021,03,09,04,11,4.40
2021,03,09,04,12,4.40
2021,03,09,04,13,4.40
2021,03,09,04,14,4.40
2021,03,09,04,15,4.50
2021,03,09,04,16,4.50
2021,03,09,04,17,4.60
2021,03,09,04,18,4.60
2021,03,09,04,19,4.60
2021,03,09,04,20,4.70
2021,03,09,04,21,4.80
2021,03,09,04,22,4.80
2021,03,09,04,23,4.80
2021,03,09,04,24,4.90
2021,03,09,04,25,4.90
2021,03,09,04,26,4.90
2021,03,09,04,27,4.80
2021,03,09,04,28,4.80
2021,03,09,04,29,4.90
2021,03,09,04,30,4.90
2021,03,09,04,31,4.90
2021,03,09,04,32,4.90
2021,03,09,04,33,4.90
2021,03,09,04,34,4.80
2021,03,09,04,35,4.80
2021,03,09,04,36,4.80
2021,03,09,04,37,4.80
2021,03,09,04,38,4.90
2021,03,09,04,39,4.90
2021,03,09,04,40,4.90
2021,03,09,04,41,4.90
2021,03,09,04,42,5.00
2021,03,09,04,43,5.10
2021,03,09,04,44,5.10
2021,03,09,04,45,5.20
2021,03,09,04,46,5.20
2021,03,09,04,47,5.20
2021,03,09,04,48,5.20
2021,03,09,04,49,5.30
2021,03,09,04,50,5.30
2021,03,09,04,51,5.30
2021,03,09,04,52,5.30
2021,03,09,04,53,5.30
2021,03,09,04,54,5.30
2021,03,09,04,55,5.30
2021,03,09,04,56,5.30
2021,03,09,04,57,5.30
2021,03,09,04,58,5.30
2021,03,09,04,59,5.30
2021,03,09,05,00,5.30
2021,03,09,05,01,5.30
2021,03,09,05,02,5.30
2021,03,09,05,03,5.30
2021,03,09,05,04,5.30
2021,03,09,05,05,5.30
2021,03,09,05,06,5.30
2021,03,09,05,07,5.30
2021,03,09,05,08,5.30
2021,03,09,05,09,5.30
2021,03,09,05,10,5.30
2021,03,09,05,11,5.40
2021,03,09,05,12,5.40
2021,03,09,05,13,5.40
2021,03,09,05,14,5.50
2021,03,09,05,15,5.50
2021,03,09,05,16,5.50
2021,03,09,05,17,5.50
2021,03,09,05,18,5.50
2021,03,09,05,19,5.50
2021,03,09,05,20,5.60
2021,03,09,05,21,5.60
2021,03,09,05,22,5.60
2021,03,09,05,23,5.70
2021,03,09,05,24,5.70
2021,03,09,05,25,5.70
2021,03,09,05,26,5.70
2021,03,09,05,27,5.70
2021,03,09,05,28,5.70
2021,03,09,05,29,5.70
2021,03,09,05,30,5.80
2021,03,09,05,31,5.80
2021,03,09,05,32,5.80
2021,03,09,05,33,5.80
2021,03,09,05,34,5.80
2021,03,09,05,35,5.80
2021,03,09,05,36,5.90
2021,03,09,05,37,5.90
2021,03,09,05,38,5.90
2021,03,09,05,39,5.90
2021,03,09,05,40,5.90
2021,03,09,05,41,5.90
2021,03,09,05,42,5.90
2021,03,09,05,43,5.90
2021,03,09,05,44,6.00
2021,03,09,05,45,6.00
2021,03,09,05,46,6.00
2021,03,09,05,47,6.00
2021,03,09,05,48,6.00
2021,03,09,05,49,6.00
2021,03,09,05,50,6.00
2021,03,09,05,51,6.00
2021,03,09,05,52,6.00
2021,03,09,05,53,6.00
2021,03,09,05,54,6.00
2021,03,09,05,55,6.00
2021,03,09,05,56,6.00
2021,03,09,05,57,6.00
2021,03,09,05,58,6.10
2021,03,09,05,59,6.00
2021,03,09,06,00,6.00
2021,03,09,06,01,6.00
2021,03,09,06,02,6.00
2021,03,09,06,03,6.10
2021,03,09,06,04,6.10
2021,03,09,06,05,6.10
2021,03,09,06,06,6.10
2021,03,09,06,07,6.10
2021,03,09,06,08,6.10
2021,03,09,06,09,6.10
2021,03,09,06,10,6.10
2021,03,09,06,11,6.10
2021,03,09,06,12,6.10
2021,03,09,06,13,6.10
2021,03,09,06,14,6.10
2021,03,09,06,15,6.10
2021,03,09,06,16,6.10
2021,03,09,06,17,6.10
2021,03,09,06,18,6.10
2021,03,09,06,19,6.10
2021,03,09,06,20,6.10
2021,03,09,06,21,6.10
2021,03,09,06,22,6.10
2021,03,09,06,23,6.20
2021,03,09,06,24,6.20
2021,03,09,06,25,6.20
2021,03,09,06,26,6.20
2021,03,09,06,27,6.10
2021,03,09,06,28,6.10
2021,03,09,06,29,6.10
2021,03,09,06,30,6.10
2021,03,09,06,31,6.10
2021,03,09,06,32,6.10
2021,03,09,06,33,6.10
2021,03,09,06,34,6.10
2021,03,09,06,35,6.10
2021,03,09,06,36,6.00
2021,03,09,06,37,6.00
2021,03,09,06,38,6.00
2021,03,09,06,39,6.00
2021,03,09,06,40,6.00
2021,03,09,06,41,6.00
2021,03,09,06,42,6.00
2021,03,09,06,43,6.00
2021,03,09,06,44,6.10
2021,03,09,06,45,6.10
2021,03,09,06,46,6.10
2021,03,09,06,47,6.10
2021,03,09,06,48,6.10
2021,03,09,06,49,6.10
2021,03,09,06,50,6.10
2021,03,09,06,51,6.10
2021,03,09,06,52,6.10
2021,03,09,06,53,6.10
2021,03,09,06,54,6.10
2021,03,09,06,55,6.10
2021,03,09,06,56,6.10
2021,03,09,06,57,6.20
2021,03,09,06,58,6.20
2021,03,09,06,59,6.20
2021,03,09,07,00,6.20
2021,03,09,07,01,6.20
2021,03,09,07,02,6.20
2021,03,09,07,03,6.20
2021,03,09,07,04,6.20
2021,03,09,07,05,6.30
2021,03,09,07,06,6.30
2021,03,09,07,07,6.30
2021,03,09,07,08,6.40
2021,03,09,07,09,6.40
2021,03,09,07,10,6.40
2021,03,09,07,11,6.40
2021,03,09,07,12,6.40
2021,03,09,07,13,6.40
2021,03,09,07,14,6.40
2021,03,09,07,15,6.40
2021,03,09,07,16,6.40
2021,03,09,07,17,6.40
2021,03,09,07,18,6.40
2021,03,09,07,19,6.40
2021,03,09,07,20,6.40
2021,03,09,07,21,6.40
2021,03,09,07,22,6.40
2021,03,09,07,23,6.40
2021,03,09,07,24,6.40
2021,03,09,07,25,6.40
2021,03,09,07,26,6.40
2021,03,09,07,27,6.40
2021,03,09,07,28,6.40
2021,03,09,07,29,6.40
2021,03,09,07,30,6.40
2021,03,09,07,31,6.40
2021,03,09,07,32,6.40
2021,03,09,07,33,6.40
2021,03,09,07,34,6.40
2021,03,09,07,35,6.40
2021,03,09,07,36,6.40
2021,03,09,07,37,6.40
2021,03,09,07,38,6.40
2021,03,09,07,39,6.40
2021,03,09,07,40,6.40
2021,03,09,07,41,6.40
2021,03,09,07,42,6.40
2021,03,09,07,43,6.40
2021,03,09,07,44,6.40
2021,03,09,07,45,6.40
2021,03,09,07,46,6.40
2021,03,09,07,47,6.40
2021,03,09,07,48,6.40
2021,03,09,07,49,6.40
2021,03,09,07,50,6.40
2021,03,09,07,51,6.30
2021,03,09,07,52,6.30
2021,03,09,07,53,6.30
2021,03,09,07,54,6.30
2021,03,09,07,55,6.30
2021,03,09,07,56,6.40
2021,03,09,07,57,6.40
2021,03,09,07,58,6.40
2021,03,09,07,59,6.40
2021,03,09,08,00,6.40
2021,03,09,08,01,6.40
2021,03,09,08,02,6.40
2021,03,09,08,03,6.40
2021,03,09,08,04,6.40
2021,03,09,08,05,6.40
2021,03,09,08,06,6.40
2021,03,09,08,07,6.40
2021,03,09,08,08,6.40
2021,03,09,08,09,6.40
2021,03,09,08,10,6.40
2021,03,09,08,11,6.40
2021,03,09,08,12,6.40
2021,03,09,08,13,6.40
2021,03,09,08,14,6.40
2021,03,09,08,15,6.40
2021,03,09,08,16,6.40
2021,03,09,08,17,6.40
2021,03,09,08,18,6.40
2021,03,09,08,19,6.40
2021,03,09,08,20,6.40
2021,03,09,08,21,6.40
2021,03,09,08,22,6.40
2021,03,09,08,23,6.40
2021,03,09,08,24,6.40
2021,03,09,08,25,6.40
2021,03,09,08,26,6.40
2021,03,09,08,27,6.40
2021,03,09,08,28,6.40
2021,03,09,08,29,6.40
2021,03,09,08,30,6.40
2021,03,09,08,31,6.40
2021,03,09,08,32,6.40
2021,03,09,08,33,6.40
2021,03,09,08,34,6.40
2021,03,09,08,35,6.40
2021,03,09,08,36,6.40
2021,03,09,08,37,6.40
2021,03,09,08,38,6.40
2021,03,09,08,39,6.40
2021,03,09,08,40,6.40
2021,03,09,08,41,6.40
2021,03,09,08,42,6.40
2021,03,09,08,43,6.40
2021,03,09,08,44,6.40
2021,03,09,08,45,6.40
2021,03,09,08,46,6.50
2021,03,09,08,47,6.60
2021,03,09,08,48,6.60
2021,03,09,08,49,6.60
2021,03,09,08,50,6.60
2021,03,09,08,51,6.60
2021,03,09,08,52,6.60
2021,03,09,08,53,6.60
2021,03,09,08,54,6.60
2021,03,09,08,55,6.60
2021,03,09,08,56,6.60
2021,03,09,08,57,6.70
2021,03,09,08,58,6.70
2021,03,09,08,59,6.70
2021,03,09,09,00,6.70
2021,03,09,09,01,6.70
2021,03,09,09,02,6.70
2021,03,09,09,03,6.70
2021,03,09,09,04,6.70
2021,03,09,09,05,6.70
2021,03,09,09,06,6.70
2021,03,09,09,07,6.70
2021,03,09,09,08,6.70
2021,03,09,09,09,6.70
2021,03,09,09,10,6.70
2021,03,09,09,11,6.70
2021,03,09,09,12,6.70
2021,03,09,09,13,6.70
2021,03,09,09,14,6.60
2021,03,09,09,15,6.60
2021,03,09,09,16,6.60
2021,03,09,09,17,6.60
2021,03,09,09,18,6.60
2021,03,09,09,19,6.60
2021,03,09,09,20,6.60
2021,03,09,09,21,6.60
2021,03,09,09,22,6.60
2021,03,09,09,23,6.60
2021,03,09,09,24,6.60
2021,03,09,09,25,6.60
2021,03,09,09,26,6.60
2021,03,09,09,27,6.60
2021,03,09,09,28,6.60
2021,03,09,09,29,6.60
2021,03,09,09,30,6.60
2021,03,09,09,31,6.60
2021,03,09,09,32,6.60
2021,03,09,09,33,6.60
2021,03,09,09,34,6.60
2021,03,09,09,35,6.60
2021,03,09,09,36,6.60
2021,03,09,09,37,6.60
2021,03,09,09,38,6.60
2021,03,09,09,39,6.60
2021,03,09,09,40,6.60
2021,03,09,09,41,6.60
2021,03,09,09,42,6.60
2021,03,09,09,43,6.70
2021,03,09,09,44,6.70
2021,03,09,09,45,6.70
2021,03,09,09,46,6.70
2021,03,09,09,47,6.70
2021,03,09,09,48,6.70
2021,03,09,09,49,6.70
2021,03,09,09,50,6.70
2021,03,09,09,51,6.70
2021,03,09,09,52,6.80
2021,03,09,09,53,6.70
2021,03,09,09,54,6.70
2021,03,09,09,55,6.70
2021,03,09,09,56,6.70
2021,03,09,09,57,6.70
2021,03,09,09,58,6.70
2021,03,09,09,59,6.80
2021,03,09,10,00,6.80
2021,03,09,10,01,6.80
2021,03,09,10,02,6.80
2021,03,09,10,03,6.80
2021,03,09,10,04,6.80
2021,03,09,10,05,6.80
2021,03,09,10,06,6.90
2021,03,09,10,07,6.90
2021,03,09,10,08,7.00
2021,03,09,10,09,7.00
2021,03,09,10,10,7.00
2021,03,09,10,11,7.00
2021,03,09,10,12,7.00
2021,03,09,10,13,7.00
2021,03,09,10,14,7.10
2021,03,09,10,15,7.10
2021,03,09,10,16,7.10
2021,03,09,10,17,7.10
2021,03,09,10,18,7.00
2021,03,09,10,19,7.10
2021,03,09,10,20,7.10
2021,03,09,10,21,7.10
2021,03,09,10,22,7.10
2021,03,09,10,23,7.10
2021,03,09,10,24,7.10
2021,03,09,10,25,7.10
2021,03,09,10,26,7.20
2021,03,09,10,27,7.20
2021,03,09,10,28,7.20
2021,03,09,10,29,7.30
2021,03,09,10,30,7.30
2021,03,09,10,31,7.30
2021,03,09,10,32,7.30
2021,03,09,10,33,7.30
2021,03,09,10,34,7.30
2021,03,09,10,35,7.30
2021,03,09,10,36,7.30
2021,03,09,10,37,7.40
2021,03,09,10,38,7.50
2021,03,09,10,39,7.50
2021,03,09,10,40,7.50
2021,03,09,10,41,7.60
2021,03,09,10,42,7.60
2021,03,09,10,43,7.60
2021,03,09,10,44,7.60
2021,03,09,10,45,7.60
2021,03,09,10,46,7.60
2021,03,09,10,47,7.70
2021,03,09,10,48,7.70
2021,03,09,10,49,7.80
2021,03,09,10,50,7.80
2021,03,09,10,51,7.80
2021,03,09,10,52,7.80
2021,03,09,10,53,7.80
2021,03,09,10,54,7.70
2021,03,09,10,55,7.70
2021,03,09,10,56,7.70
2021,03,09,10,57,7.70
2021,03,09,10,58,7.70
2021,03,09,10,59,7.70
2021,03,09,11,00,7.70
2021,03,09,11,01,7.70
2021,03,09,11,02,7.70
2021,03,09,11,03,7.70
2021,03,09,11,04,7.70
2021,03,09,11,05,7.80
2021,03,09,11,06,7.80
2021,03,09,11,07,7.80
2021,03,09,11,08,7.90
2021,03,09,11,09,7.90
2021,03,09,11,10,8.00
2021,03,09,11,11,8.00
2021,03,09,11,12,8.10
2021,03,09,11,13,8.10
2021,03,09,11,14,8.10
2021,03,09,11,15,8.10
2021,03,09,11,16,8.20
2021,03,09,11,17,8.20
2021,03,09,11,18,8.20
2021,03,09,11,19,8.20
2021,03,09,11,20,8.20
2021,03,09,11,21,8.20
2021,03,09,11,22,8.20
2021,03,09,11,23,8.20
2021,03,09,11,24,8.20
2021,03,09,11,25,8.20
2021,03,09,11,26,8.20
2021,03,09,11,27,8.30
2021,03,09,11,28,8.30
2021,03,09,11,29,8.40
2021,03,09,11,30,8.50
2021,03,09,11,31,8.50
2021,03,09,11,32,8.60
2021,03,09,11,33,8.60
2021,03,09,11,34,8.70
2021,03,09,11,35,8.70
2021,03,09,11,36,8.70
2021,03,09,11,37,8.80
2021,03,09,11,38,8.70
2021,03,09,11,39,8.70
2021,03,09,11,40,8.70
2021,03,09,11,41,8.70
2021,03,09,11,42,8.60
2021,03,09,11,43,8.50
2021,03,09,11,44,8.50
2021,03,09,11,45,8.40
2021,03,09,11,46,8.40
2021,03,09,11,47,8.40
2021,03,09,11,48,8.30
2021,03,09,11,49,8.20
2021,03,09,11,50,8.20
2021,03,09,11,51,8.20
2021,03,09,11,52,8.10
2021,03,09,11,53,8.10
2021,03,09,11,54,8.10
2021,03,09,11,55,8.00
2021,03,09,11,56,8.00
2021,03,09,11,57,8.00
2021,03,09,11,58,8.00
2021,03,09,11,59,8.00
2021,03,09,12,00,8.10
2021,03,09,12,01,8.10
2021,03,09,12,02,8.10
2021,03,09,12,03,8.00
2021,03,09,12,04,8.10
2021,03,09,12,05,8.10
2021,03,09,12,06,8.10
2021,03,09,12,07,8.10
2021,03,09,12,08,8.20
2021,03,09,12,09,8.20
2021,03,09,12,10,8.20
2021,03,09,12,11,8.20
2021,03,09,12,12,8.20
2021,03,09,12,13,8.20
2021,03,09,12,14,8.20
2021,03,09,12,15,8.30
2021,03,09,12,16,8.40
2021,03,09,12,17,8.50
2021,03,09,12,18,8.50
2021,03,09,12,19,8.60
2021,03,09,12,20,8.70
2021,03,09,12,21,8.70
2021,03,09,12,22,8.60
2021,03,09,12,23,8.60
2021,03,09,12,24,8.50
2021,03,09,12,25,8.60
2021,03,09,12,26,8.60
2021,03,09,12,27,8.60
2021,03,09,12,28,8.60
2021,03,09,12,29,8.60
2021,03,09,12,30,8.60
2021,03,09,12,31,8.60
2021,03,09,12,32,8.50
2021,03,09,12,33,8.50
2021,03,09,12,34,8.40
2021,03,09,12,35,8.50
2021,03,09,12,36,8.50
2021,03,09,12,37,8.50
2021,03,09,12,38,8.60
2021,03,09,12,39,8.60
2021,03,09,12,40,8.50
2021,03,09,12,41,8.50
2021,03,09,12,42,8.50
2021,03,09,12,43,8.50
2021,03,09,12,44,8.50
2021,03,09,12,45,8.60
2021,03,09,12,46,8.60
2021,03,09,12,47,8.70
2021,03,09,12,48,8.70
2021,03,09,12,49,8.70
2021,03,09,12,50,8.70
2021,03,09,12,51,8.70
2021,03,09,12,52,8.70
2021,03,09,12,53,8.70
2021,03,09,12,54,8.70
2021,03,09,12,55,8.70
2021,03,09,12,56,8.70
2021,03,09,12,57,8.70
2021,03,09,12,58,8.80
2021,03,09,12,59,8.90
2021,03,09,13,00,8.90
2021,03,09,13,01,8.90
2021,03,09,13,02,8.90
2021,03,09,13,03,8.80
2021,03,09,13,04,8.70
2021,03,09,13,05,8.80
2021,03,09,13,06,8.80
2021,03,09,13,07,8.80
2021,03,09,13,08,8.90
2021,03,09,13,09,8.90
2021,03,09,13,10,8.90
2021,03,09,13,11,8.90
2021,03,09,13,12,8.80
2021,03,09,13,13,8.80
2021,03,09,13,14,8.80
2021,03,09,13,15,8.80
2021,03,09,13,16,8.80
2021,03,09,13,17,8.80
2021,03,09,13,18,8.80
2021,03,09,13,19,8.80
2021,03,09,13,20,8.70
2021,03,09,13,21,8.70
2021,03,09,13,22,8.70
2021,03,09,13,23,8.70
2021,03,09,13,24,8.70
2021,03,09,13,25,8.70
2021,03,09,13,26,8.70
2021,03,09,13,27,8.70
2021,03,09,13,28,8.70
2021,03,09,13,29,8.60
2021,03,09,13,30,8.70
2021,03,09,13,31,8.60
2021,03,09,13,32,8.60
2021,03,09,13,33,8.60
2021,03,09,13,34,8.50
2021,03,09,13,35,8.50
2021,03,09,13,36,8.50
2021,03,09,13,37,8.50
2021,03,09,13,38,8.50
2021,03,09,13,39,8.50
2021,03,09,13,40,8.60
2021,03,09,13,41,8.60
2021,03,09,13,42,8.60
2021,03,09,13,43,8.70
2021,03,09,13,44,8.60
2021,03,09,13,45,8.70
2021,03,09,13,46,8.70
2021,03,09,13,47,8.70
2021,03,09,13,48,8.70
2021,03,09,13,49,8.70
2021,03,09,13,50,8.70
2021,03,09,13,51,8.70
2021,03,09,13,52,8.70
2021,03,09,13,53,8.70
2021,03,09,13,54,8.70
2021,03,09,13,55,8.80
2021,03,09,13,56,8.90
2021,03,09,13,57,8.90
2021,03,09,13,58,8.90
2021,03,09,13,59,8.90
2021,03,09,14,00,8.90
2021,03,09,14,01,8.90
2021,03,09,14,02,8.90
2021,03,09,14,03,8.90
2021,03,09,14,04,8.90
2021,03,09,14,05,8.80
2021,03,09,14,06,8.70
2021,03,09,14,07,8.70
2021,03,09,14,08,8.70
2021,03,09,14,09,8.70
2021,03,09,14,10,8.80
2021,03,09,14,11,8.80
2021,03,09,14,12,8.90
2021,03,09,14,13,8.90
2021,03,09,14,14,9.00
2021,03,09,14,15,9.00
2021,03,09,14,16,9.10
2021,03,09,14,17,9.20
2021,03,09,14,18,9.20
2021,03,09,14,19,9.20
2021,03,09,14,20,9.20
2021,03,09,14,21,9.20
2021,03,09,14,22,9.20
2021,03,09,14,23,9.30
2021,03,09,14,24,9.20
2021,03,09,14,25,9.20
2021,03,09,14,26,9.20
2021,03,09,14,27,9.20
2021,03,09,14,28,9.10
2021,03,09,14,29,9.10
2021,03,09,14,30,9.10
2021,03,09,14,31,9.10
2021,03,09,14,32,9.10
2021,03,09,14,33,9.20
2021,03,09,14,34,9.20
2021,03,09,14,35,9.20
2021,03,09,14,36,9.10
2021,03,09,14,37,9.10
2021,03,09,14,38,9.10
2021,03,09,14,39,9.10
2021,03,09,14,40,9.10
2021,03,09,14,41,9.00
2021,03,09,14,42,9.00
2021,03,09,14,43,9.00
2021,03,09,14,44,9.00
2021,03,09,14,45,9.00
2021,03,09,14,46,9.10
2021,03,09,14,47,9.20
2021,03,09,14,48,9.20
2021,03,09,14,49,9.20
2021,03,09,14,50,9.20
2021,03,09,14,51,9.20
2021,03,09,14,52,9.20
2021,03,09,14,53,9.30
2021,03,09,14,54,9.30
2021,03,09,14,55,9.30
2021,03,09,14,56,9.30
2021,03,09,14,57,9.30
2021,03,09,14,58,9.20
2021,03,09,14,59,9.20
2021,03,09,15,00,9.10
2021,03,09,15,01,9.20
2021,03,09,15,02,9.20
2021,03,09,15,03,9.20
2021,03,09,15,04,9.20
2021,03,09,15,05,9.30
2021,03,09,15,06,9.30
2021,03,09,15,07,9.40
2021,03,09,15,08,9.60
2021,03,09,15,09,9.70
2021,03,09,15,10,9.80
2021,03,09,15,11,9.80
2021,03,09,15,12,9.80
2021,03,09,15,13,9.80
2021,03,09,15,14,9.80
2021,03,09,15,15,9.80
2021,03,09,15,16,9.90
2021,03,09,15,17,9.90
2021,03,09,15,18,9.90
2021,03,09,15,19,9.90
2021,03,09,15,20,9.90
2021,03,09,15,21,9.90
2021,03,09,15,22,10.00
2021,03,09,15,23,10.10
2021,03,09,15,24,10.20
2021,03,09,15,25,10.20
2021,03,09,15,26,10.20
2021,03,09,15,27,10.10
2021,03,09,15,28,10.10
2021,03,09,15,29,10.10
2021,03,09,15,30,9.90
2021,03,09,15,31,9.80
2021,03,09,15,32,9.70
2021,03,09,15,33,9.60
2021,03,09,15,34,9.50
2021,03,09,15,35,9.50
2021,03,09,15,36,9.50
2021,03,09,15,37,9.40
2021,03,09,15,38,9.50
2021,03,09,15,39,9.50
2021,03,09,15,40,9.60
2021,03,09,15,41,9.60
2021,03,09,15,42,9.60
2021,03,09,15,43,9.70
2021,03,09,15,44,9.70
2021,03,09,15,45,9.70
2021,03,09,15,46,9.80
2021,03,09,15,47,9.90
2021,03,09,15,48,9.90
2021,03,09,15,49,9.90
2021,03,09,15,50,9.90
2021,03,09,15,51,9.80
2021,03,09,15,52,9.90
2021,03,09,15,53,9.90
2021,03,09,15,54,9.90
2021,03,09,15,55,9.90
2021,03,09,15,56,9.90
2021,03,09,15,57,9.90
2021,03,09,15,58,9.90
2021,03,09,15,59,9.80
2021,03,09,16,00,9.70
2021,03,09,16,01,9.70
2021,03,09,16,02,9.70
2021,03,09,16,03,9.80
2021,03,09,16,04,9.90
2021,03,09,16,05,9.80
2021,03,09,16,06,9.70
2021,03,09,16,07,9.60
2021,03,09,16,08,9.50
2021,03,09,16,09,9.40
2021,03,09,16,10,9.40
2021,03,09,16,11,9.30
2021,03,09,16,12,9.40
2021,03,09,16,13,9.40
2021,03,09,16,14,9.50
2021,03,09,16,15,9.60
2021,03,09,16,16,9.60
2021,03,09,16,17,9.60
2021,03,09,16,18,9.70
2021,03,09,16,19,9.70
2021,03,09,16,20,9.70
2021,03,09,16,21,9.80
2021,03,09,16,22,9.80
2021,03,09,16,23,9.80
2021,03,09,16,24,9.80
2021,03,09,16,25,9.80
2021,03,09,16,26,9.90
2021,03,09,16,27,9.90
2021,03,09,16,28,10.10
2021,03,09,16,29,10.10
2021,03,09,16,30,10.10
2021,03,09,16,31,10.20
2021,03,09,16,32,10.30
2021,03,09,16,33,10.30
2021,03,09,16,34,10.40
2021,03,09,16,35,10.40
2021,03,09,16,36,10.30
2021,03,09,16,37,10.20
2021,03,09,16,38,10.20
2021,03,09,16,39,10.10
2021,03,09,16,40,10.20
2021,03,09,16,41,10.20
2021,03,09,16,42,10.20
2021,03,09,16,43,10.20
2021,03,09,16,44,10.20
2021,03,09,16,45,10.20
2021,03,09,16,46,10.20
2021,03,09,16,47,10.20
2021,03,09,16,48,10.30
2021,03,09,16,49,10.20
2021,03,09,16,50,10.20
2021,03,09,16,51,10.20
2021,03,09,16,52,10.20
2021,03,09,16,53,10.20
2021,03,09,16,54,10.20
2021,03,09,16,55,10.20
2021,03,09,16,56,10.20
2021,03,09,16,57,10.20
2021,03,09,16,58,10.20
2021,03,09,16,59,10.20
2021,03,09,17,00,10.10
2021,03,09,17,01,10.10
2021,03,09,17,02,10.10
2021,03,09,17,03,10.10
2021,03,09,17,04,10.10
2021,03,09,17,05,10.10
2021,03,09,17,06,10.10
2021,03,09,17,07,10.10
2021,03,09,17,08,10.10
2021,03,09,17,09,10.10
2021,03,09,17,10,10.20
2021,03,09,17,11,10.20
2021,03,09,17,12,10.20
2021,03,09,17,13,10.20
2021,03,09,17,14,10.10
2021,03,09,17,15,10.10
2021,03,09,17,16,10.10
2021,03,09,17,17,10.00
2021,03,09,17,18,9.90
2021,03,09,17,19,9.90
2021,03,09,17,20,9.90
2021,03,09,17,21,9.80
2021,03,09,17,22,9.80
2021,03,09,17,23,9.80
2021,03,09,17,24,9.80
2021,03,09,17,25,9.80
2021,03,09,17,26,9.80
2021,03,09,17,27,9.80
2021,03,09,17,28,9.80
2021,03,09,17,29,9.80
2021,03,09,17,30,9.70
2021,03,09,17,31,9.70
2021,03,09,17,32,9.70
2021,03,09,17,33,9.60
2021,03,09,17,34,9.60
2021,03,09,17,35,9.50
2021,03,09,17,36,9.40
2021,03,09,17,37,9.40
2021,03,09,17,38,9.30
2021,03,09,17,39,9.30
2021,03,09,17,40,9.30
2021,03,09,17,41,9.20
2021,03,09,17,42,9.20
2021,03,09,17,43,9.20
2021,03,09,17,44,9.20
2021,03,09,17,45,9.20
2021,03,09,17,46,9.20
2021,03,09,17,47,9.20
2021,03,09,17,48,9.20
2021,03,09,17,49,9.10
2021,03,09,17,50,9.00
2021,03,09,17,51,9.00
2021,03,09,17,52,8.90
2021,03,09,17,53,8.90
2021,03,09,17,54,8.90
2021,03,09,17,55,8.90
2021,03,09,17,56,8.80
2021,03,09,17,57,8.80
2021,03,09,17,58,8.80
2021,03,09,17,59,8.80
2021,03,09,18,00,8.80
2021,03,09,18,01,8.70
2021,03,09,18,02,8.70
2021,03,09,18,03,8.70
2021,03,09,18,04,8.60